Terminal Aerodrome Forecast
Issued by NWS Binghamton, NY

Home | Current Version | Previous Version | Text Only | Print | Product List | Glossary On
Versions: 1 2 3 4 5 6 7 8 9 10 11 12 13 14 15 16
000
FTUS41 KBGM 300500
TAFSYR
TAF
KSYR 300525Z 3006/3106 14005KT P6SM SCT250
     FM301400 17008KT P6SM SCT100
     FM302200 19008KT P6SM SCT040 BKN150=

USA.gov is the U.S. government's official web portal to all federal, state and local government web resources and services.